Theta_e
326 327 327 326 326 326 326 325 324 323 321 320 321 320 321 321 319 313 307 304 302 301 301 301 301 300 300 300 302 306 307 308 309 309 308 308 307 307 310 309 307 309 310 308 308 308 307
324 325 325 326 326 327 326 326 326 325 322 320 321 320 320 320 319 316 308 303 303 301 301 300 299 299 300 300 302 307 308 308 309 309 309 309 308 308 308 306 307 306 307 308 307 308 308
325 325 325 326 327 326 326 326 324 324 325 323 322 321 319 319 320 317 309 303 302 302 301 300 299 300 302 302 303 307 308 308 308 308 308 307 307 308 308 308 307 308 308 307 308 307 309
319 321 325 325 326 325 326 325 323 323 324 323 322 322 321 320 319 314 309 303 301 301 303 300 299 303 304 304 304 307 308 308 307 307 307 306 307 307 306 307 307 308 306 308 308 307 308
315 318 320 321 325 325 324 323 322 322 322 322 322 322 321 320 318 311 302 301 300 300 301 300 299 304 305 307 308 306 307 306 305 305 306 306 306 306 307 307 308 306 308 306 307 307 307
317 314 316 318 320 324 324 323 323 324 323 323 322 322 320 319 318 310 301 298 298 300 300 300 300 302 302 307 305 306 304 304 305 306 306 306 306 306 305 308 308 307 305 305 305 307 306
315 316 317 317 323 323 324 323 323 324 323 323 323 321 319 318 315 306 301 298 300 302 302 301 305 302 307 304 304 304 304 304 303 303 303 301 307 307 303 303 305 304 304 304 304 304 305
315 316 316 317 319 321 322 323 323 322 322 321 319 319 317 315 310 301 299 298 299 300 300 300 303 303 306 306 304 302 304 303 302 301 301 301 302 302 301 301 301 301 302 303 304 305 305
312 314 315 316 314 315 318 320 320 322 321 318 318 317 316 313 302 298 296 298 299 298 298 299 299 303 304 304 303 302 302 302 300 301 301 301 301 301 301 301 302 301 301 302 302 304 304
308 311 312 313 314 315 314 317 318 316 319 317 316 316 315 313 310 298 299 299 299 297 299 300 304 304 305 304 301 302 301 302 301 301 300 301 300 300 301 301 301 302 301 301 301 302 302
306 307 309 310 312 313 315 315 317 318 316 316 315 315 313 314 301 297 300 300 300 301 305 304 304 304 304 302 302 302 302 302 302 301 301 301 300 300 301 301 301 302 301 300 301 302 303
304 305 306 307 308 310 313 315 314 313 315 312 314 313 312 310 300 299 300 301 299 301 300 305 303 301 301 300 301 301 302 302 301 301 300 300 299 300 301 300 300 300 300 300 303 304 302
301 302 302 304 306 307 311 315 315 314 315 312 313 312 312 311 303 304 302 301 302 301 303 302 302 301 301 301 301 301 301 301 300 301 300 300 300 300 300 300 300 300 301 300 300 304 302
297 299 300 301 304 306 307 311 315 315 314 312 313 311 309 308 300 301 301 304 300 300 304 300 300 300 301 300 300 300 299 300 301 299 300 300 301 300 300 300 299 300 300 300 299 300 300
297 301 300 303 304 305 306 306 311 315 314 312 311 307 303 301 299 301 300 301 302 302 301 300 300 301 301 300 300 300 300 301 301 300 301 300 300 300 300 300 299 300 300 301 301 301 300
297 298 298 300 302 304 305 305 311 314 314 313 310 303 295 297 301 301 303 299 299 299 299 300 301 300 300 300 300 300 301 301 301 300 300 300 298 300 300 300 301 301 301 302 302 300 299
298 299 299 300 301 302 305 305 311 312 312 310 307 298 295 301 302 301 301 299 300 299 300 300 300 300 299 299 299 299 301 301 301 300 300 301 300 299 300 300 299 302 303 303 304 303 302
298 298 302 302 302 303 304 305 310 313 312 305 300 299 297 299 301 301 301 301 299 299 300 299 299 299 299 299 300 300 301 302 300 300 300 301 301 299 299 300 299 301 303 303 303 303 305
298 298 298 301 302 302 304 306 307 311 312 304 299 298 300 300 301 301 301 299 299 300 300 299 299 299 300 300 300 301 301 299 298 299 300 301 301 299 300 300 301 302 302 303 303 304 304
299 299 300 300 301 303 304 306 306 310 310 305 299 300 299 300 300 300 300 300 299 298 299 299 300 300 300 300 300 300 300 300 298 298 301 302 301 300 299 299 300 301 301 302 303 304 303
300 300 300 300 300 302 304 305 306 309 306 305 299 299 299 300 300 299 300 300 299 299 299 300 300 300 300 300 300 300 299 298 299 303 301 302 302 301 301 301 301 301 302 302 302 303 304
303 305 302 302 302 304 305 305 307 309 304 302 298 298 298 297 298 300 301 300 300 299 301 300 301 300 299 300 301 300 299 299 300 299 300 300 301 301 301 301 302 302 301 300 302 304 302
309 308 309 308 306 305 305 306 307 307 304 299 300 298 299 298 301 300 300 300 300 300 299 300 300 300 300 299 298 298 297 298 299 300 301 301 301 302 301 302 302 303 301 300 300 300 300
310 310 309 308 305 305 305 307 306 303 305 301 300 299 299 300 300 300 300 300 300 299 300 299 299 299 298 298 298 298 297 297 298 298 299 300 302 302 302 302 302 301 299 299 300 300 299
307 307 307 306 305 306 306 306 303 303 301 300 299 299 300 300 300 300 299 299 300 299 299 298 298 298 298 299 301 301 301 302 301 300 299 300 301 302 302 302 301 301 299 299 299 299 298
307 306 306 306 306 306 306 304 301 300 300 300 300 300 301 300 299 299 299 299 299 299 298 297 298 298 299 298 301 301 302 302 302 299 298 299 298 301 301 301 302 301 298 297 298 300 297
303 302 302 301 304 304 303 298 299 300 299 300 300 300 300 297 298 299 298 298 298 298 298 297 297 297 298 297 300 301 301 300 301 298 297 298 297 299 299 299 299 298 297 297 301 300 297
301 300 300 303 300 301 301 300 300 300 300 300 300 300 300 297 297 298 298 297 298 298 299 297 298 296 296 298 298 299 300 300 300 298 297 298 299 299 296 296 300 297 297 299 297 296 295
300 300 300 300 298 296 295 295 299 299 300 300 299 299 298 298 296 297 298 298 298 299 298 296 296 294 294 295 294 297 300 298 298 299 296 299 298 300 299 300 295 297 296 295 295 295 294
Wind_Speed
31 28 28 26 24 24 21 19 21 19 18 17 17 17 18 18 18 17 15 14 14 16 17 18 17 17 14 5 7 8 7 5 2 1 1 2 2 3 2 2 3 4 5 4 7 17 15
34 32 32 31 29 28 26 24 22 19 20 19 19 19 20 19 19 19 18 16 16 16 17 18 18 15 10 4 4 6 5 6 4 1 1 2 4 3 2 2 2 1 6 14 12 17 16
40 38 36 36 33 31 31 27 21 18 19 19 19 22 20 18 19 18 19 17 16 17 17 18 18 15 12 11 6 7 4 5 4 4 4 2 1 3 5 2 1 4 6 7 8 6 5
36 30 36 36 39 35 34 24 20 15 16 19 21 23 17 17 17 16 16 16 15 14 16 17 15 12 8 4 7 6 4 5 4 2 1 2 4 3 2 1 3 3 1 3 3 7 3
31 34 31 34 34 31 29 24 22 19 22 23 24 23 18 18 17 17 15 13 14 13 13 13 11 7 8 4 4 4 4 3 4 6 5 3 3 0 2 2 3 4 4 7 7 8 4
27 29 30 32 33 29 26 25 29 25 25 23 26 26 22 16 16 16 15 13 12 13 10 9 10 6 4 2 2 4 3 3 2 9 8 3 3 2 2 1 2 3 5 4 9 6 13
30 30 28 30 29 32 28 32 28 31 28 28 25 24 23 15 13 13 11 10 6 4 3 6 5 3 1 3 2 6 4 3 4 4 2 3 3 0 1 2 2 3 4 8 8 7 12
31 32 30 30 30 29 28 28 31 26 26 25 20 24 24 16 11 12 10 5 5 4 6 9 17 19 12 6 1 2 3 3 3 2 1 3 3 1 2 3 1 2 4 6 9 11 11
34 34 33 32 29 30 30 29 29 27 26 22 20 22 24 19 11 11 9 5 5 5 3 5 9 11 14 6 2 1 1 5 4 3 3 2 2 3 1 5 3 5 3 3 6 11 7
38 36 36 36 33 29 30 28 29 27 26 24 21 22 23 19 13 11 7 3 3 2 2 3 4 2 11 8 3 3 4 2 4 3 3 4 3 4 5 4 4 2 6 5 9 12 7
29 34 35 35 35 33 27 28 25 25 26 25 23 23 23 18 11 13 6 8 3 2 4 4 2 9 14 7 10 6 6 6 3 2 2 3 2 4 5 2 1 1 6 9 9 11 6
25 26 31 32 33 34 35 28 30 27 31 22 26 27 25 16 18 19 12 7 5 3 6 3 5 5 5 3 3 6 6 8 5 4 4 3 4 3 1 1 2 9 5 6 1 2 4
25 26 29 31 32 32 35 32 32 32 30 23 28 28 23 15 19 14 19 11 3 4 2 5 4 4 6 2 5 3 4 5 2 3 2 3 1 0 2 3 2 7 6 4 2 1 3
29 29 27 27 29 30 31 36 34 35 34 26 32 28 22 17 24 22 18 2 6 4 4 3 5 6 5 2 3 2 4 3 7 4 2 1 2 1 4 3 3 4 3 1 4 3 9
32 31 29 27 27 29 30 30 36 41 35 30 34 24 22 24 29 26 18 3 8 6 5 8 4 4 3 2 5 4 3 3 2 1 3 3 1 2 4 2 1 1 2 3 3 4 6
36 35 35 31 30 27 30 29 36 43 40 40 36 29 25 26 29 26 4 6 3 2 3 3 5 3 5 6 4 3 4 2 3 0 1 3 1 1 2 3 5 1 1 1 2 3 4
39 38 38 35 33 30 29 26 41 42 35 44 36 18 26 23 24 15 7 6 3 4 4 2 4 5 4 5 4 3 6 3 4 3 3 3 2 2 1 3 3 3 2 2 2 3 3
44 42 37 36 34 29 27 27 57 53 51 41 26 4 33 29 9 5 8 5 5 4 3 3 4 5 5 4 4 3 5 4 7 6 5 3 3 2 2 3 5 3 4 2 2 2 3
48 49 47 41 37 33 29 37 56 54 51 39 10 12 27 27 6 8 4 4 3 4 3 3 3 3 2 5 5 5 5 9 7 6 6 6 2 1 4 2 2 4 4 3 3 4 9
53 53 52 47 42 40 36 53 59 56 51 39 10 5 9 18 6 7 7 5 5 4 3 5 5 5 5 3 4 6 5 3 2 4 8 4 3 3 4 2 2 4 5 5 5 5 7
57 58 54 51 46 41 43 66 63 55 54 35 8 4 12 9 12 5 7 8 7 5 3 4 3 3 6 5 4 5 4 4 3 6 4 2 3 3 7 12 11 13 10 7 7 9 7
51 49 50 49 47 46 57 71 62 58 50 21 12 9 17 15 20 6 6 7 10 5 5 4 8 9 4 5 5 9 8 4 3 2 2 2 3 1 3 2 2 4 6 3 5 7 8
37 37 39 43 51 54 72 65 63 63 50 10 14 20 22 21 12 10 7 7 7 8 4 10 14 6 6 6 11 17 8 10 8 6 3 3 2 0 2 4 3 3 4 1 4 2 2
32 37 39 47 59 72 67 65 66 54 51 16 28 29 10 7 11 9 9 5 14 5 7 13 16 7 7 19 18 16 11 8 5 3 6 6 3 1 2 5 1 3 3 3 3 4 2
31 40 51 64 70 63 64 62 60 54 37 26 33 26 11 7 11 6 15 9 15 17 11 13 5 15 22 12 4 6 1 3 3 3 4 1 2 1 1 2 2 3 1 3 2 1 2
49 53 59 62 63 69 61 58 60 49 30 26 29 20 18 10 5 18 10 25 14 9 4 6 19 20 9 3 2 4 4 4 5 4 5 6 4 1 1 2 3 3 1 4 3 4 7
64 64 65 64 65 61 63 63 57 39 30 28 18 19 21 10 12 24 6 12 16 8 5 6 8 5 4 2 2 2 3 3 6 6 4 3 2 3 3 3 5 1 7 3 3 2 9
57 58 58 54 55 53 52 53 45 33 24 22 21 21 19 11 15 14 20 18 17 14 8 14 6 1 2 3 2 2 2 3 3 4 4 5 5 3 3 2 3 1 2 2 2 4 7
43 43 41 40 46 46 45 41 34 33 23 17 19 15 27 18 26 25 19 21 12 11 23 7 5 5 5 4 1 3 2 2 3 4 1 2 4 4 5 2 4 1 2 2 2 3 4
Wind_Direction
256 257 257 258 260 262 257 262 266 265 265 268 273 282 288 296 305 308 303 300 303 309 313 317 323 325 329 310 257 211 193 191 231 314 97 105 121 144 186 246 306 225 275 293 282 296 284
255 258 257 256 255 257 263 260 261 263 262 260 270 275 283 297 305 306 302 301 303 307 312 316 319 321 313 269 210 201 196 208 230 267 43 100 141 158 193 208 202 325 293 294 292 279 275
254 259 258 257 254 255 259 258 251 254 263 259 265 271 280 291 296 300 297 300 301 304 311 312 315 315 295 272 205 207 220 223 247 265 262 278 196 182 149 235 326 282 297 305 279 301 289
261 263 258 257 257 255 255 247 241 251 260 261 266 273 283 283 286 284 286 291 294 300 307 309 306 305 273 225 195 235 225 238 249 221 230 234 264 250 220 305 6 315 58 331 341 340 334
256 255 253 257 262 256 251 243 245 254 255 262 272 270 274 271 276 275 279 283 290 296 301 303 294 295 279 215 210 203 207 203 249 233 212 224 236 137 66 58 336 21 306 314 316 316 298
251 253 247 247 251 252 251 240 254 256 256 257 266 269 273 276 281 280 284 286 291 289 288 286 267 286 253 174 184 169 137 148 104 133 114 123 77 56 44 106 263 305 308 289 294 299 315
250 248 247 247 253 247 251 243 254 250 253 257 252 259 268 262 265 257 267 294 281 267 244 240 170 219 280 356 192 156 135 137 113 103 100 49 104 190 303 239 264 279 259 283 296 302 321
250 245 244 242 242 250 245 242 249 249 249 259 255 256 262 255 250 248 262 257 257 293 304 259 246 247 242 303 314 123 162 159 87 93 40 52 123 134 277 53 251 204 310 326 307 329 333
250 247 245 245 245 248 244 256 242 245 250 248 246 251 251 239 216 230 239 242 282 307 289 264 231 243 219 207 165 78 139 121 104 95 55 82 97 338 78 57 58 99 47 327 307 315 279
252 248 245 243 245 244 244 245 247 253 254 242 253 247 245 247 227 216 220 244 251 287 325 242 206 192 162 165 87 72 80 78 42 124 107 81 4 4 57 59 8 316 0 317 314 331 321
255 250 247 243 241 236 242 242 244 241 241 241 245 242 238 242 183 175 151 197 214 116 280 136 165 144 147 149 136 61 75 77 90 111 118 109 48 85 68 338 326 343 311 310 292 284 297
260 254 248 246 243 238 233 236 238 232 232 239 242 230 227 216 174 161 150 160 126 84 251 167 141 164 95 69 68 103 77 83 93 84 44 50 56 54 35 67 102 323 292 279 105 253 255
256 255 254 247 242 240 234 230 229 231 225 246 235 228 225 214 192 161 144 157 110 199 111 171 159 131 102 81 64 59 70 43 82 142 43 22 31 277 27 28 45 9 358 339 301 225 279
256 256 257 253 244 238 236 230 236 226 221 220 227 214 210 195 166 151 164 149 173 203 173 110 102 94 105 94 51 101 103 104 40 61 107 191 185 50 7 60 355 352 29 112 282 283 297
260 255 254 249 246 241 235 237 234 235 215 211 205 194 182 171 158 161 164 184 195 194 167 140 103 100 93 106 129 123 79 113 111 76 168 165 222 307 105 91 234 51 48 17 297 288 277
265 258 254 250 245 242 231 234 224 224 206 205 191 172 170 173 168 172 173 221 207 221 126 183 139 132 151 171 130 119 140 153 120 346 265 156 158 336 3 82 37 21 83 203 125 267 267
263 258 254 252 245 237 229 226 218 216 201 199 176 137 164 169 167 168 198 223 196 204 163 136 127 120 143 155 130 127 139 122 163 150 132 127 202 139 257 169 175 156 164 109 296 236 264
261 258 252 246 242 235 222 210 204 215 200 177 146 107 162 160 154 188 212 196 167 161 121 105 95 106 141 143 114 126 145 143 172 159 164 152 140 220 215 299 229 200 172 155 211 259 268
259 258 255 244 238 230 214 209 204 214 203 169 111 112 164 168 168 186 232 191 151 154 151 119 113 115 124 129 113 124 122 142 123 165 171 165 149 155 112 128 115 202 169 180 225 220 242
257 253 250 248 238 227 210 202 199 211 204 173 130 121 146 197 213 169 183 167 131 98 86 107 110 103 115 97 52 144 128 154 172 160 127 141 154 221 206 100 138 246 212 260 244 255 287
256 252 247 243 236 219 202 199 205 212 185 168 147 164 166 178 208 184 175 160 146 145 110 131 94 162 144 130 119 138 129 118 83 134 96 149 182 227 268 272 268 268 262 242 233 258 267
255 246 236 229 224 211 194 197 203 204 184 155 159 139 167 170 165 173 184 193 163 123 144 166 155 148 127 152 182 168 131 169 167 103 128 50 177 211 274 227 225 227 186 280 261 263 266
236 224 217 207 198 189 187 196 200 196 182 154 146 140 146 165 164 178 179 158 155 129 41 162 137 113 121 140 122 126 106 121 140 146 117 130 170 259 240 325 332 220 174 303 288 216 268
212 203 201 188 179 182 188 194 192 182 183 176 154 149 125 162 174 173 148 142 152 151 131 140 131 110 132 132 108 92 93 112 121 110 135 150 162 188 313 335 264 103 113 299 255 241 341
178 176 172 169 174 180 189 186 176 177 168 177 157 163 137 138 153 126 130 126 115 111 107 120 102 135 144 133 90 111 83 122 118 98 179 124 135 126 343 306 299 151 316 336 350 118 15
158 160 164 169 178 182 184 171 172 163 158 165 169 164 139 127 196 150 138 145 134 127 88 92 121 145 153 87 100 149 170 154 155 117 65 103 68 132 158 243 261 121 0 327 227 235 7
151 151 155 160 172 171 170 166 166 153 155 174 150 153 144 101 124 141 136 142 143 127 104 131 151 121 121 91 109 139 138 154 161 166 168 119 83 189 155 238 283 268 319 307 260 23 339
147 151 153 163 161 161 164 169 149 156 165 156 149 145 145 110 124 132 143 139 137 140 146 159 114 77 84 92 141 157 137 159 127 134 169 170 162 169 129 193 276 217 261 285 14 330 337
139 144 148 153 149 140 144 153 162 167 171 172 144 139 130 112 109 117 123 143 145 157 139 136 131 130 141 103 162 130 130 132 141 180 143 188 199 174 198 220 130 184 190 219 288 298 339